Home   Weather   Thule Air Base   Past weeks

Flag for Greenland Past Weather in Thule Air Base, Greenland — Yesterday and Last 2 Weeks

Now
-6 °F

Sunny.


Feels Like: -22 °F
Forecast: -5 / 13 °F
Wind: 9 mph from East

Location: Thule A. B.

Current Time: Apr 26, 2017 at 7:06:09 am

Latest Report: Apr 26, 2017 at 5:58 am


Visibility: N/A

Pressure: 29.70 "Hg

Humidity: 77%

Dew Point: -11 °F

Location of Thule Air BaseLocation

Past Weather in Thule Air Base — Graph

°F

Thule Air Base Temperature Yesterday

Maximum temperature yesterday: 14 °F (at 1:58 pm)
Minimum temperature yesterday: -6 °F (at 2:58 am)
Average temperature yesterday: 5 °F

High & Low Weather Summary for the Past Weeks

 TemperatureHumidityPressure
High19 °F (Apr 12, 2:58 pm)92% (Apr 19, 2:14 am)30.40 "Hg (Apr 19, 2:14 am)
Low-8 °F (Apr 17, 12:58 am)49% (Apr 18, 2:58 pm)29.37 "Hg (Apr 18, 2:58 am)
Average9 °F72%30.02 "Hg
* Reported Apr 11 5:58 am — Apr 26 5:58 am, Thule Air Base, Weather by CustomWeather, © 2017

Note: Actual official high and low records may vary slightly from our data, if they occured in-between our weather recording intervals... More about our weather records

Advertising

Thule Air Base Weather History for the Previous 24 Hours

Scroll right to see more
 ConditionsComfort  
Time TempWeatherWind HumidityBarometerVisibility
5:58 am
Wed, Apr 26
-6 °FSunny.9 mph77%29.70 "HgN/A
4:58 am-4 °FSunny.10 mph77%29.73 "HgN/A
3:58 am-6 °FSunny.12 mph77%29.75 "HgN/A
2:58 am-6 °FSunny.12 mph77%29.76 "HgN/A
1:58 am-2 °FSunny.13 mph71%29.78 "HgN/A
12:58 am-2 °FSunny.13 mph71%29.79 "HgN/A
11:58 pm
Tue, Apr 25
3 °FScattered clouds.9 mph72%29.80 "HgN/A
11:33 pm0 °FPartly sunny.7 mph71%29.81 "HgN/A
10:58 pm3 °FScattered clouds.9 mph66%29.81 "HgN/A
10:33 pm1 °FPartly sunny.9 mph71%29.81 "HgN/A
9:58 pm3 °FPassing clouds.6 mph69%29.81 "HgN/A
8:58 pm5 °FSunny.5 mph72%29.82 "HgN/A
7:58 pm12 °FSunny.No wind57%29.82 "HgN/A
6:58 pm12 °FSunny.No wind57%29.83 "HgN/A
5:58 pm14 °FSunny.No wind52%29.82 "HgN/A
4:58 pm14 °FSunny.No wind57%29.80 "HgN/A
3:58 pm14 °FSunny.No wind57%29.79 "HgN/A
2:58 pm12 °FSunny.3 mph62%29.79 "HgN/A
1:58 pm14 °FSunny.No wind52%29.78 "HgN/A
12:58 pm10 °FSunny.No wind61%29.77 "HgN/A
11:58 am10 °FSunny.5 mph61%29.77 "HgN/A
10:58 am7 °FSunny.7 mph66%29.76 "HgN/A
9:58 am5 °FSunny.6 mph66%29.76 "HgN/A
8:58 am3 °FSunny.6 mph66%29.75 "HgN/A
7:58 am0 °FSunny.6 mph71%29.75 "HgN/A
Weather by CustomWeather, © 2017

See weather overviewHow to use our weather pages